Weather History for Windom, MN

Change the Weather History Date:

Wednesday, November 20, 2013

  Actual Average Record
Temperature  
Mean Temperature 40 °F -  
Max Temperature 50 °F 38 °F 65 °F (1962)
Min Temperature 30 °F 21 °F 3 °F (2011)
Degree Days  
Heating Degree Days 25    
Moisture  
Dew Point 31 °F    
Average Humidity 66    
Maximum Humidity 100    
Minimum Humidity 50    
Precipitation  
Precipitation 0.00 in - - ()
Sea Level Pressure  
Sea Level Pressure 29.85 in    
Wind  
Wind Speed 15 mph (SSE)    
Max Wind Speed 21 mph    
Max Gust Speed 30 mph    
Visibility 10 miles    
Events      
Averages and records for this station are not official NWS values.
T = Trace of Precipitation, MM = Missing Value Source: NWS Daily Summary

Daily Weather History Graph

Daily Weather History Graph

Search for Another Location

Airport:

Trip Planner

Search our weather history database for the weather conditions in past years. The results will help you decide how hot, cold, wet, or windy it might be!

Date:

Astronomy

Nov. 20, 2013 Rise Set
Actual Time 7:21 AM CST 4:49 PM CST
Civil Twilight 6:50 AM CST 5:21 PM CST
Nautical Twilight 6:15 AM CST 5:56 PM CST
Astronomical Twilight 5:40 AM CST 6:30 PM CST
Moon 7:33 PM CST 9:48 AM CST
Length of Visible Light 10h 31m
Length of Day
9h 27m
Waning Gibbous, 91% of the Moon is Illuminated
Nov 20
Waning Gibbous
Nov 25
Last Quarter
Dec 2
New
Dec 9
First Quarter
Dec 17
Full

Hourly Weather History & Observations

Time (CST) Temp. Windchill Dew Point Humidity Pressure Visibility Wind Dir Wind Speed Gust Speed Precip Events Conditions
12:13 AM 44.6 °F 36.9 °F 30.2 °F 57% 29.81 in 10.0 mi SSE 18.4 mph 28.8 mph N/A   Scattered Clouds
12:32 AM 44.6 °F 36.4 °F 30.2 °F 57% 29.81 in 10.0 mi SSE 20.7 mph 28.8 mph N/A   Scattered Clouds
12:52 AM 44.6 °F 36.9 °F 30.2 °F 57% 29.80 in 10.0 mi SSE 18.4 mph 29.9 mph N/A   Clear
1:13 AM 44.6 °F 37.2 °F 28.4 °F 53% 29.81 in 10.0 mi SSE 17.3 mph 27.6 mph N/A   Clear
1:32 AM 44.6 °F 37.2 °F 28.4 °F 53% 29.81 in 10.0 mi SSE 17.3 mph 25.3 mph N/A   Clear
1:52 AM 44.6 °F 37.4 °F 30.2 °F 57% 29.81 in 10.0 mi SSE 16.1 mph 25.3 mph N/A   Clear
2:13 AM 44.6 °F 37.4 °F 28.4 °F 53% 29.80 in 10.0 mi SSE 16.1 mph 28.8 mph N/A   Clear
2:32 AM 44.6 °F 37.2 °F 28.4 °F 53% 29.81 in 10.0 mi SSE 17.3 mph 24.2 mph N/A   Clear
2:53 AM 44.6 °F 37.4 °F 28.4 °F 53% 29.81 in 10.0 mi SSE 16.1 mph 23.0 mph N/A   Clear
3:13 AM 44.6 °F 37.2 °F 28.4 °F 53% 29.81 in 10.0 mi SSE 17.3 mph 25.3 mph N/A   Scattered Clouds
3:32 AM 44.6 °F 37.4 °F 28.4 °F 53% 29.80 in 10.0 mi SSE 16.1 mph 26.5 mph N/A   Mostly Cloudy
3:53 AM 44.6 °F 37.4 °F 28.4 °F 53% 29.80 in 10.0 mi SSE 16.1 mph 20.7 mph N/A   Scattered Clouds
4:12 AM 44.6 °F 37.2 °F 28.4 °F 53% 29.80 in 10.0 mi SSE 17.3 mph 24.2 mph N/A   Scattered Clouds
4:32 AM 44.6 °F 36.9 °F 28.4 °F 53% 29.80 in 10.0 mi SSE 18.4 mph 26.5 mph N/A   Mostly Cloudy
4:53 AM 42.8 °F 34.3 °F 28.4 °F 57% 29.79 in 10.0 mi SSE 19.6 mph 26.5 mph N/A   Scattered Clouds
5:12 AM 42.8 °F 35.4 °F 28.4 °F 57% 29.79 in 10.0 mi SSE 15.0 mph 24.2 mph N/A   Scattered Clouds
5:32 AM 42.8 °F 34.5 °F 28.4 °F 57% 29.79 in 10.0 mi SSE 18.4 mph 23.0 mph N/A   Clear
5:53 AM 42.8 °F 35.8 °F 28.4 °F 57% 29.79 in 10.0 mi SSE 13.8 mph 25.3 mph N/A   Clear
6:12 AM 42.8 °F 34.8 °F 28.4 °F 57% 29.79 in 10.0 mi SSE 17.3 mph 21.9 mph N/A   Clear
6:32 AM 42.8 °F 35.1 °F 28.4 °F 57% 29.79 in 10.0 mi SSE 16.1 mph 23.0 mph N/A   Clear
6:53 AM 42.8 °F 35.4 °F 28.4 °F 57% 29.80 in 10.0 mi SSE 15.0 mph 24.2 mph N/A   Clear
7:12 AM 42.8 °F 35.8 °F 28.4 °F 57% 29.80 in 10.0 mi SSE 13.8 mph 21.9 mph N/A   Clear
7:32 AM 41.0 °F 33.5 °F 28.4 °F 61% 29.81 in 10.0 mi SSE 13.8 mph 19.6 mph N/A   Clear
7:52 AM 42.8 °F 35.1 °F 28.4 °F 57% 29.81 in 10.0 mi SSE 16.1 mph 20.7 mph N/A   Clear
8:13 AM 42.8 °F 35.4 °F 30.2 °F 61% 29.81 in 10.0 mi SSE 15.0 mph 20.7 mph N/A   Clear
8:33 AM 42.8 °F 35.1 °F 30.2 °F 61% 29.81 in 10.0 mi SSE 16.1 mph 21.9 mph N/A   Clear
8:52 AM 42.8 °F 35.4 °F 30.2 °F 61% 29.82 in 10.0 mi SSE 15.0 mph 24.2 mph N/A   Clear
9:13 AM 42.8 °F 35.4 °F 30.2 °F 61% 29.83 in 10.0 mi SSE 15.0 mph 23.0 mph N/A   Clear
9:33 AM 42.8 °F 34.8 °F 30.2 °F 61% 29.83 in 10.0 mi SSE 17.3 mph 23.0 mph N/A   Clear
9:52 AM 44.6 °F 38.1 °F 32.0 °F 61% 29.84 in 10.0 mi SSE 13.8 mph 21.9 mph N/A   Clear
10:13 AM 44.6 °F 37.4 °F 32.0 °F 61% 29.84 in 10.0 mi SSE 16.1 mph 20.7 mph N/A   Scattered Clouds
10:33 AM 44.6 °F 37.4 °F 32.0 °F 61% 29.84 in 10.0 mi SSE 16.1 mph 21.9 mph N/A   Clear
10:52 AM 44.6 °F 37.4 °F 30.2 °F 57% 29.84 in 10.0 mi SSE 16.1 mph 21.9 mph N/A   Mostly Cloudy
11:13 AM 46.4 °F 39.5 °F 32.0 °F 57% 29.84 in 10.0 mi SSE 17.3 mph 21.9 mph N/A   Overcast
11:32 AM 46.4 °F 39.8 °F 30.2 °F 53% 29.84 in 10.0 mi SSE 16.1 mph 24.2 mph N/A   Overcast
11:52 AM 46.4 °F 40.4 °F 32.0 °F 57% 29.83 in 10.0 mi SSE 13.8 mph 23.0 mph N/A   Overcast
12:12 PM 46.4 °F 40.1 °F 32.0 °F 57% 29.83 in 10.0 mi South 15.0 mph 21.9 mph N/A   Overcast
12:32 PM 46.4 °F 40.7 °F 32.0 °F 57% 29.82 in 10.0 mi SSE 12.7 mph 18.4 mph N/A   Overcast
12:53 PM 46.4 °F 41.1 °F 32.0 °F 57% 29.82 in 10.0 mi South 11.5 mph - N/A   Scattered Clouds
1:12 PM 48.2 °F - 32.0 °F 54% 29.81 in 10.0 mi SSE 12.7 mph 19.6 mph N/A   Clear
1:32 PM 48.2 °F - 32.0 °F 54% 29.81 in 10.0 mi SSE 10.4 mph 17.3 mph N/A   Clear
1:53 PM 48.2 °F - 33.8 °F 58% 29.81 in 10.0 mi SSE 9.2 mph - N/A   Clear
2:12 PM 48.2 °F - 33.8 °F 58% 29.81 in 10.0 mi SSE 10.4 mph - N/A   Clear
2:32 PM 48.2 °F - 33.8 °F 58% 29.81 in 10.0 mi SE 10.4 mph - N/A   Clear
2:52 PM 50.0 °F - 32.0 °F 50% 29.80 in 10.0 mi SSE 12.7 mph - N/A   Clear
3:12 PM 48.2 °F - 32.0 °F 54% 29.81 in 10.0 mi SSE 9.2 mph - N/A   Clear
3:33 PM 48.2 °F - 32.0 °F 54% 29.81 in 10.0 mi SE 10.4 mph - N/A   Clear
3:52 PM 48.2 °F - 33.8 °F 58% 29.82 in 10.0 mi SE 10.4 mph - N/A   Clear
4:12 PM 48.2 °F - 33.8 °F 58% 29.82 in 10.0 mi SE 8.1 mph - N/A   Clear
4:33 PM 46.4 °F 41.5 °F 33.8 °F 62% 29.83 in 10.0 mi ESE 10.4 mph - N/A   Clear
4:52 PM 44.6 °F 40.2 °F 33.8 °F 66% 29.84 in 10.0 mi ESE 8.1 mph - N/A   Clear
5:12 PM 42.8 °F 38.6 °F 33.8 °F 70% 29.85 in 10.0 mi ESE 6.9 mph - N/A   Scattered Clouds
5:33 PM 42.8 °F 38.0 °F 33.8 °F 70% 29.86 in 10.0 mi SE 8.1 mph - N/A   Clear
5:52 PM 41.0 °F 35.2 °F 33.8 °F 76% 29.87 in 10.0 mi SE 9.2 mph - N/A   Clear
6:12 PM 41.0 °F 35.2 °F 33.8 °F 76% 29.88 in 10.0 mi SE 9.2 mph - N/A   Clear
6:33 PM 39.2 °F 33.6 °F 33.8 °F 81% 29.89 in 10.0 mi SE 8.1 mph - N/A   Clear
6:52 PM 37.4 °F 32.1 °F 33.8 °F 87% 29.89 in 10.0 mi SE 6.9 mph - N/A   Clear
7:12 PM 37.4 °F 32.1 °F 33.8 °F 87% 29.89 in 10.0 mi ESE 6.9 mph - N/A   Clear
7:33 PM 35.6 °F 29.9 °F 32.0 °F 87% 29.90 in 10.0 mi ESE 6.9 mph - N/A   Clear
7:52 PM 35.6 °F 30.7 °F 32.0 °F 87% 29.90 in 10.0 mi SE 5.8 mph - N/A   Clear
8:12 PM 35.6 °F 31.7 °F 33.8 °F 93% 29.91 in 10.0 mi SE 4.6 mph - N/A   Clear
8:33 PM 35.6 °F 30.7 °F 32.0 °F 87% 29.92 in 10.0 mi SE 5.8 mph - N/A   Clear
8:52 PM 35.6 °F 30.7 °F 33.8 °F 93% 29.93 in 10.0 mi SE 5.8 mph - N/A   Clear
9:12 PM 35.6 °F 30.7 °F 33.8 °F 93% 29.93 in 10.0 mi SE 5.8 mph - N/A   Clear
9:33 PM 35.6 °F 30.7 °F 33.8 °F 93% 29.95 in 10.0 mi SE 5.8 mph - N/A   Clear
9:52 PM 33.8 °F 30.8 °F 32.0 °F 93% 29.96 in 10.0 mi SE 3.5 mph - N/A   Clear
10:12 PM 33.8 °F - 32.0 °F 93% 29.97 in 10.0 mi Calm Calm - N/A   Clear
10:33 PM 32.0 °F 23.6 °F 30.2 °F 93% 29.98 in 7.0 mi West 10.4 mph - N/A   Clear
10:52 PM 30.2 °F 24.3 °F 30.2 °F 100% 29.99 in 7.0 mi West 5.8 mph - N/A   Clear
11:12 PM 30.2 °F 24.3 °F 30.2 °F 100% 29.99 in 7.0 mi WNW 5.8 mph - N/A   Clear
11:33 PM 30.2 °F 21.3 °F 30.2 °F 100% 30.00 in 10.0 mi NW 10.4 mph - N/A   Clear
11:52 PM 30.2 °F 22.6 °F 28.4 °F 93% 30.01 in 7.0 mi NW 8.1 mph - N/A   Clear